Regional Weather Roundup
Issued by NWS

Home | Current Version | Previous Version | Text Only | Print | Product List | Glossary On
Versions: 1 2 3 4 5 6 7 8 9 10 11 12 13 14 15 16 17 18 19 20 21 22 23 24 25 26 27 28 29 30 31 32 33 34 35 36 37 38 39 40 41 42 43 44 45 46 47 48 49 50
000
ASUS43 KFSD 080010
RWRSD

WEATHER ROUNDUP FOR SOUTH DAKOTA
NATIONAL WEATHER SERVICE SIOUX FALLS SD
600 PM CST SUN FEB 07 2016

NOTE: "FAIR" INDICATES FEW OR NO CLOUDS BELOW 12,000 FEET WITH NO
SIGNIFICANT WEATHER AND/OR OBSTRUCTIONS TO VISIBILITY.


SDZ001>005-009-010-012>017-080100-
NORTHWEST AND NORTH CENTRAL SOUTH DAKOTA

CITY           SKY/WX    TMP DP  RH WIND       PRES   REMARKS
BUFFALO          N/A     34  12  40 NW33G49   30.16R WCI  20
FAITH            N/A     34  14  43 NW31G49   30.16R WCI  20
MOBRIDGE       PTCLDY    36  16  44 NW31G56   30.03R
$$

SDZ012>016-024>037-041>051-057-063-072>074-080100-
SOUTHWEST AND SOUTH CENTRAL SOUTH DAKOTA

CITY           SKY/WX    TMP DP  RH WIND       PRES   REMARKS
RAPID CTY ARPT CLEAR     35   6  29 NW30G58   30.20R WCI  22
PIERRE         PTCLDY    36  15  42 NW43G56   30.07R
CUSTER         CLEAR     25   1  35 NW22G39   30.19R WCI  10
ELLSWORTH AFB  CLEAR     35   7  30 NW31G48   30.20R WCI  22
PHILIP         PTCLDY    36  18  48 NW38G48   30.14R
PINE RIDGE     CLEAR     36   2  23 NW26G36   30.22R
SPEARFISH      HVY SNOW  32   7  34 NW33G47   30.27R WCI  17
WINNER         MOCLDY    36  19  50 NW29G36   30.10R
$$

SDZ004>011-016>023-039-040-080100-
NORTHEAST SOUTH DAKOTA

CITY           SKY/WX    TMP DP  RH WIND       PRES   REMARKS
ABERDEEN       CLOUDY    30  18  60 NW40G51   29.97R WCI  13
WATERTOWN      FLURRIES  23  15  71 N29G37    29.89R WCI   6
BROOKINGS      FLURRIES  25  19  78 NW29G37   29.87R WCI   8
SISSETON         N/A     23  19  85 N30G39    29.90R WCI   5
$$

SDZ017-020-022-023-036>040-048>070-080100-
SOUTHEAST SOUTH DAKOTA

CITY           SKY/WX    TMP DP  RH WIND       PRES   REMARKS
SIOUX FALLS    CLOUDY    29  20  69 NW29G39   29.92R WCI  14
HURON          LGT SNOW  29  27  92 N23G32    29.98R FOG     WCI  15
CHAMBERLAIN    CLOUDY    34  20  57 NW29G40   30.05R WCI  20
MITCHELL       FLURRIES  33  27  78 NW31G41   30.00R WCI  19
YANKTON        CLOUDY    34  25  69 NW26G32   29.99R WCI  21
$$

ABBREVIATIONS USED IN REMARKS
   TC - TEMPERATURE IN CELSIUS
  WCI - WIND CHILL INDEX
   HX - HEAT INDEX
  VSB - VISIBILITY




USA.gov is the U.S. government's official web portal to all federal, state and local government web resources and services.